CMP126 SLVR-MPTO

Flight info

Callsign CMP126
Flight time N/A
Altitude 36000
Route PAKES UN420 LOBAL/N0453F380 UN420 IRATA SIRIL3
Aircraft B738/M-SDE2E3FGHIRWXY/LB1

Departure

Time 2026-04-27 22:34
Airport Viru Viru International Airport (SLVR)

Arrival

Time N/A
Airport Tocumen International Airport (MPTO)
Time Latitude Longitude Altitude Speed Heading
2026-04-27 21:59 -17.64763 -63.13973 1230 ft 0 kts 237°
2026-04-27 22:23 -17.64762 -63.13972 1230 ft 2 kts 237°
2026-04-27 22:23 -17.64749 -63.13951 1230 ft 4 kts 241°
2026-04-27 22:23 -17.64742 -63.13925 1230 ft 4 kts 272°
2026-04-27 22:24 -17.64745 -63.13902 1230 ft 1 kts 280°
2026-04-27 22:24 -17.64746 -63.13897 1230 ft 0 kts 280°
2026-04-27 22:27 -17.64745 -63.13898 1230 ft 0 kts 280°
2026-04-27 22:28 -17.64740 -63.13908 1230 ft 3 kts 304°
2026-04-27 22:28 -17.64707 -63.13925 1230 ft 8 kts 341°
2026-04-27 22:28 -17.64646 -63.13954 1230 ft 11 kts 329°
2026-04-27 22:28 -17.64572 -63.14002 1230 ft 14 kts 328°
2026-04-27 22:29 -17.64484 -63.13993 1230 ft 15 kts 45°
2026-04-27 22:29 -17.64420 -63.13900 1230 ft 16 kts 56°
2026-04-27 22:29 -17.64328 -63.13872 1230 ft 17 kts 336°
2026-04-27 22:29 -17.64224 -63.13941 1230 ft 19 kts 327°
2026-04-27 22:30 -17.64109 -63.14019 1230 ft 21 kts 327°
2026-04-27 22:30 -17.63980 -63.14079 1230 ft 20 kts 14°
2026-04-27 22:30 -17.63885 -63.13979 1227 ft 19 kts 25°
2026-04-27 22:30 -17.63762 -63.14017 1227 ft 19 kts 329°
2026-04-27 22:31 -17.63651 -63.14086 1229 ft 18 kts 329°
2026-04-27 22:31 -17.63548 -63.14159 1229 ft 18 kts 326°
2026-04-27 22:31 -17.63449 -63.14230 1230 ft 17 kts 327°
2026-04-27 22:31 -17.63352 -63.14295 1230 ft 16 kts 328°
2026-04-27 22:32 -17.63258 -63.14357 1229 ft 16 kts 327°
2026-04-27 22:32 -17.63200 -63.14439 1228 ft 13 kts 331°
2026-04-27 22:32 -17.63186 -63.14400 1228 ft 9 kts 150°
2026-04-27 22:32 -17.63241 -63.14361 1228 ft 11 kts 147°
2026-04-27 22:33 -17.63445 -63.14227 1230 ft 68 kts 148°
2026-04-27 22:33 -17.64036 -63.13830 1227 ft 131 kts 147°
2026-04-27 22:33 -17.64953 -63.13223 1281 ft 177 kts 148°
2026-04-27 22:33 -17.66067 -63.12488 1688 ft 198 kts 148°
2026-04-27 22:34 -17.67226 -63.11700 2445 ft 199 kts 148°
2026-04-27 22:34 -17.68246 -63.10779 3286 ft 198 kts 123°
2026-04-27 22:34 -17.68536 -63.09306 3537 ft 225 kts 81°
2026-04-27 22:34 -17.67730 -63.07833 3773 ft 247 kts 40°
2026-04-27 22:35 -17.66163 -63.07066 4280 ft 254 kts
2026-04-27 22:35 -17.64367 -63.07208 4614 ft 270 kts 337°
2026-04-27 22:35 -17.62928 -63.08428 5208 ft 274 kts 300°
2026-04-27 22:35 -17.62434 -63.10302 6215 ft 268 kts 271°
2026-04-27 22:36 -17.62473 -63.12253 7046 ft 268 kts 271°
2026-04-27 22:36 -17.62414 -63.14218 7749 ft 273 kts 277°
2026-04-27 22:36 -17.61811 -63.16084 8481 ft 271 kts 302°
2026-04-27 22:36 -17.60763 -63.17735 9235 ft 275 kts 305°
2026-04-27 22:37 -17.59667 -63.19387 9995 ft 276 kts 305°
2026-04-27 22:37 -17.58548 -63.21065 10460 ft 290 kts 305°
2026-04-27 22:37 -17.57346 -63.22874 10609 ft 313 kts 305°
2026-04-27 22:37 -17.56062 -63.24814 10787 ft 333 kts 304°
2026-04-27 22:38 -17.54721 -63.26848 11181 ft 344 kts 304°
2026-04-27 22:38 -17.53356 -63.28925 11728 ft 348 kts 304°
2026-04-27 22:38 -17.51977 -63.31027 12308 ft 352 kts 304°
2026-04-27 22:38 -17.50583 -63.33153 12850 ft 357 kts 304°
2026-04-27 22:39 -17.49171 -63.35309 13396 ft 361 kts 304°
2026-04-27 22:39 -17.47745 -63.37484 13928 ft 365 kts 304°
2026-04-27 22:39 -17.46300 -63.39688 14399 ft 368 kts 304°
2026-04-27 22:39 -17.44846 -63.41904 14906 ft 370 kts 304°
2026-04-27 22:40 -17.43402 -63.44105 15392 ft 373 kts 304°
2026-04-27 22:40 -17.41927 -63.46353 15892 ft 376 kts 303°
2026-04-27 22:40 -17.40440 -63.48619 16363 ft 379 kts 303°
2026-04-27 22:40 -17.38940 -63.50904 16847 ft 382 kts 303°
2026-04-27 22:41 -17.37429 -63.53205 17332 ft 385 kts 303°
2026-04-27 22:41 -17.35905 -63.55521 17784 ft 388 kts 304°
2026-04-27 22:41 -17.34066 -63.57606 18202 ft 394 kts 321°
2026-04-27 22:41 -17.31667 -63.59004 18625 ft 398 kts 338°
2026-04-27 22:42 -17.29042 -63.59945 19055 ft 400 kts 341°
2026-04-27 22:42 -17.26378 -63.60831 19437 ft 403 kts 341°
2026-04-27 22:42 -17.23687 -63.61711 19813 ft 406 kts 341°
2026-04-27 22:42 -17.20980 -63.62601 20203 ft 409 kts 341°
2026-04-27 22:43 -17.18263 -63.63506 20594 ft 411 kts 341°
2026-04-27 22:43 -17.15532 -63.64425 20985 ft 413 kts 341°
2026-04-27 22:43 -17.12782 -63.65358 21365 ft 416 kts 341°
2026-04-27 22:43 -17.10020 -63.66300 21735 ft 418 kts 341°
2026-04-27 22:44 -17.07275 -63.67238 22096 ft 421 kts 341°
2026-04-27 22:44 -17.04487 -63.68191 22461 ft 423 kts 341°
2026-04-27 22:44 -17.01676 -63.69151 22827 ft 425 kts 341°
2026-04-27 22:44 -16.98855 -63.70115 23192 ft 427 kts 341°
2026-04-27 22:45 -16.96010 -63.71087 23532 ft 430 kts 341°
2026-04-27 22:45 -16.93157 -63.72061 23803 ft 433 kts 341°
2026-04-27 22:45 -16.90277 -63.73044 24083 ft 435 kts 341°
2026-04-27 22:45 -16.87396 -63.74027 24364 ft 437 kts 341°
2026-04-27 22:46 -16.84532 -63.75004 24636 ft 439 kts 341°
2026-04-27 22:46 -16.81624 -63.75995 24908 ft 441 kts 341°
2026-04-27 22:46 -16.78699 -63.76991 25171 ft 443 kts 341°
2026-04-27 22:46 -16.75759 -63.77993 25443 ft 445 kts 341°
2026-04-27 22:47 -16.72804 -63.79000 25715 ft 447 kts 341°
2026-04-27 22:47 -16.69843 -63.80008 25980 ft 449 kts 341°
2026-04-27 22:47 -16.66857 -63.81024 26238 ft 450 kts 341°
2026-04-27 22:47 -16.63874 -63.82039 26494 ft 452 kts 341°
2026-04-27 22:48 -16.60874 -63.83060 26751 ft 454 kts 341°
2026-04-27 22:48 -16.57895 -63.84073 27000 ft 456 kts 341°
2026-04-27 22:48 -16.54871 -63.85101 27245 ft 457 kts 341°
2026-04-27 22:48 -16.51832 -63.86134 27491 ft 459 kts 341°
2026-04-27 22:49 -16.48796 -63.87178 27737 ft 460 kts 339°
2026-04-27 22:49 -16.45910 -63.88610 27944 ft 461 kts 329°
2026-04-27 22:49 -16.43157 -63.90334 28188 ft 462 kts 327°
2026-04-27 22:49 -16.40469 -63.92111 28407 ft 463 kts 327°
2026-04-27 22:50 -16.37742 -63.93931 28622 ft 465 kts 327°
2026-04-27 22:50 -16.35003 -63.95741 28841 ft 466 kts 327°
2026-04-27 22:50 -16.32248 -63.97536 29060 ft 468 kts 327°
2026-04-27 22:50 -16.29472 -63.99320 29266 ft 469 kts 328°
2026-04-27 22:51 -16.26683 -64.01099 29483 ft 470 kts 328°
2026-04-27 22:51 -16.23880 -64.02877 29761 ft 470 kts 328°
2026-04-27 22:51 -16.21122 -64.04622 30084 ft 469 kts 328°
2026-04-27 22:51 -16.18339 -64.06383 30382 ft 467 kts 328°
2026-04-27 22:52 -16.15560 -64.08141 30676 ft 465 kts 328°
2026-04-27 22:52 -16.12795 -64.09891 30951 ft 464 kts 328°
2026-04-27 22:52 -16.10041 -64.11634 31240 ft 463 kts 328°
2026-04-27 22:52 -16.07290 -64.13375 31541 ft 461 kts 328°
2026-04-27 22:53 -16.04585 -64.15087 31828 ft 460 kts 328°
2026-04-27 22:53 -16.01848 -64.16818 32119 ft 459 kts 328°
2026-04-27 22:53 -15.99126 -64.18540 32416 ft 457 kts 328°
2026-04-27 22:53 -15.96412 -64.20256 32722 ft 456 kts 328°
2026-04-27 22:54 -15.93702 -64.21969 33009 ft 455 kts 328°
2026-04-27 22:54 -15.91004 -64.23673 33297 ft 454 kts 328°
2026-04-27 22:54 -15.88306 -64.25377 33601 ft 452 kts 328°
2026-04-27 22:54 -15.85618 -64.27074 33898 ft 451 kts 328°
2026-04-27 22:55 -15.82944 -64.28762 34146 ft 450 kts 328°
2026-04-27 22:55 -15.80303 -64.30429 34374 ft 449 kts 328°
2026-04-27 22:55 -15.77629 -64.32115 34599 ft 448 kts 328°
2026-04-27 22:55 -15.74968 -64.33794 34827 ft 447 kts 328°
2026-04-27 22:56 -15.72311 -64.35469 35067 ft 446 kts 328°
2026-04-27 22:56 -15.69654 -64.37143 35300 ft 445 kts 328°
2026-04-27 22:56 -15.67011 -64.38809 35514 ft 444 kts 328°
2026-04-27 22:56 -15.64370 -64.40472 35739 ft 443 kts 328°
2026-04-27 22:57 -15.61735 -64.42131 35932 ft 443 kts 328°
2026-04-27 22:57 -15.56438 -64.45466 35964 ft 446 kts 328°
2026-04-27 22:58 -15.51150 -64.48793 35968 ft 442 kts 328°
2026-04-27 22:58 -15.45942 -64.52084 35966 ft 439 kts 328°
2026-04-27 22:59 -15.40733 -64.55388 35970 ft 437 kts 328°
2026-04-27 22:59 -15.35537 -64.58681 35970 ft 436 kts 328°
2026-04-27 23:00 -15.27789 -64.63585 35970 ft 437 kts 328°
2026-04-27 23:00 -15.22584 -64.66876 35971 ft 439 kts 328°
2026-04-27 23:01 -15.17364 -64.70176 35967 ft 440 kts 328°
2026-04-27 23:01 -15.12120 -64.73488 35966 ft 442 kts 328°
2026-04-27 23:02 -15.06858 -64.76810 35960 ft 444 kts 328°
2026-04-27 23:02 -15.01566 -64.80148 35953 ft 445 kts 328°
2026-04-27 23:03 -14.96289 -64.83475 35946 ft 446 kts 328°
2026-04-27 23:03 -14.90985 -64.86818 35941 ft 447 kts 328°
2026-04-27 23:04 -14.86572 -64.89598 35934 ft 446 kts 328°
2026-04-27 23:04 -14.81271 -64.92936 35938 ft 445 kts 328°
2026-04-27 23:05 -14.75947 -64.96225 35943 ft 445 kts 329°
2026-04-27 23:05 -14.70595 -64.99436 35941 ft 444 kts 329°
2026-04-27 23:06 -14.65297 -65.02613 35948 ft 442 kts 329°
2026-04-27 23:06 -14.59974 -65.05816 35948 ft 441 kts 329°
2026-04-27 23:07 -14.54668 -65.09012 35949 ft 441 kts 329°
2026-04-27 23:07 -14.49372 -65.12202 35954 ft 440 kts 329°
2026-04-27 23:08 -14.44113 -65.15368 35951 ft 440 kts 329°
2026-04-27 23:08 -14.38816 -65.18554 35954 ft 440 kts 329°
2026-04-27 23:09 -14.33516 -65.21741 35952 ft 440 kts 329°
2026-04-27 23:09 -14.28217 -65.24925 35953 ft 441 kts 329°
2026-04-27 23:10 -14.22938 -65.28096 35950 ft 442 kts 329°
2026-04-27 23:10 -14.17606 -65.31296 35951 ft 443 kts 329°
2026-04-27 23:11 -14.12273 -65.34496 35952 ft 444 kts 329°
2026-04-27 23:11 -14.06934 -65.37699 35947 ft 444 kts 329°
2026-04-27 23:12 -14.01639 -65.40922 35945 ft 445 kts 329°
2026-04-27 23:12 -13.96307 -65.44190 35942 ft 446 kts 329°
2026-04-27 23:13 -13.90964 -65.47461 35941 ft 446 kts 329°
2026-04-27 23:13 -13.85624 -65.50724 35943 ft 446 kts 329°
2026-04-27 23:14 -13.80291 -65.53979 35941 ft 446 kts 329°
2026-04-27 23:14 -13.74991 -65.57212 35940 ft 445 kts 329°
2026-04-27 23:15 -13.69658 -65.60463 35941 ft 445 kts 329°
2026-04-27 23:15 -13.64327 -65.63711 35940 ft 444 kts 329°
2026-04-27 23:16 -13.59007 -65.66951 35941 ft 444 kts 329°
2026-04-27 23:16 -13.53696 -65.70184 35941 ft 443 kts 329°
2026-04-27 23:17 -13.48416 -65.73396 35942 ft 443 kts 329°
2026-04-27 23:17 -13.43102 -65.76627 35939 ft 443 kts 329°
2026-04-27 23:18 -13.37795 -65.79852 35941 ft 443 kts 329°
2026-04-27 23:18 -13.32476 -65.83084 35945 ft 443 kts 329°
2026-04-27 23:19 -13.27198 -65.86288 35940 ft 444 kts 329°
2026-04-27 23:19 -13.21875 -65.89518 35941 ft 444 kts 329°
2026-04-27 23:20 -13.16545 -65.92750 35941 ft 445 kts 329°
2026-04-27 23:20 -13.11240 -65.95966 35939 ft 445 kts 329°
2026-04-27 23:21 -13.05897 -65.99203 35938 ft 446 kts 329°
2026-04-27 23:21 -13.00533 -66.02451 35939 ft 446 kts 329°
2026-04-27 23:22 -12.95208 -66.05675 35939 ft 447 kts 329°
2026-04-27 23:22 -12.89852 -66.08915 35935 ft 447 kts 329°
2026-04-27 23:23 -12.84497 -66.12152 35936 ft 447 kts 329°
2026-04-27 23:23 -12.79133 -66.15394 35935 ft 447 kts 330°
2026-04-27 23:24 -12.73767 -66.18636 35934 ft 447 kts 330°
2026-04-27 23:24 -12.68442 -66.21850 35932 ft 447 kts 330°
2026-04-27 23:25 -12.63074 -66.25090 35935 ft 447 kts 330°
2026-04-27 23:25 -12.57694 -66.28335 35936 ft 447 kts 330°
2026-04-27 23:26 -12.52356 -66.31553 35933 ft 447 kts 330°
2026-04-27 23:26 -12.46987 -66.34788 35930 ft 447 kts 330°
2026-04-27 23:27 -12.41617 -66.38022 35930 ft 447 kts 330°
2026-04-27 23:27 -12.36280 -66.41235 35933 ft 447 kts 330°
2026-04-27 23:28 -12.30910 -66.44465 35932 ft 447 kts 330°
2026-04-27 23:28 -12.25548 -66.47691 35931 ft 447 kts 330°
2026-04-27 23:29 -12.20183 -66.50916 35930 ft 447 kts 330°
2026-04-27 23:29 -12.14846 -66.54122 35931 ft 447 kts 330°
2026-04-27 23:30 -12.09475 -66.57348 35931 ft 447 kts 330°
2026-04-27 23:30 -12.04106 -66.60570 35931 ft 447 kts 330°
2026-04-27 23:31 -11.98775 -66.63769 35931 ft 447 kts 330°
2026-04-27 23:31 -11.93415 -66.66983 35930 ft 447 kts 330°
2026-04-27 23:32 -11.88051 -66.70198 35928 ft 447 kts 330°
2026-04-27 23:32 -11.82692 -66.73410 35928 ft 447 kts 330°
2026-04-27 23:33 -11.77324 -66.76624 35926 ft 447 kts 330°
2026-04-27 23:33 -11.71996 -66.79813 35928 ft 447 kts 330°
2026-04-27 23:34 -11.66637 -66.83020 35928 ft 447 kts 330°
2026-04-27 23:34 -11.61255 -66.86239 35926 ft 447 kts 330°
2026-04-27 23:35 -11.55922 -66.89427 35928 ft 447 kts 330°
2026-04-27 23:35 -11.50557 -66.92632 35922 ft 447 kts 330°
2026-04-27 23:36 -11.45181 -66.95844 35925 ft 447 kts 330°
2026-04-27 23:36 -11.39802 -66.99055 35923 ft 447 kts 330°
2026-04-27 23:37 -11.34463 -67.02240 35923 ft 447 kts 330°
2026-04-27 23:37 -11.29089 -67.05446 35922 ft 447 kts 330°
2026-04-27 23:38 -11.23713 -67.08652 35924 ft 447 kts 330°
2026-04-27 23:38 -11.18325 -67.11863 35922 ft 448 kts 330°
2026-04-27 23:39 -11.12965 -67.15055 35919 ft 448 kts 330°
2026-04-27 23:39 -11.07577 -67.18263 35921 ft 448 kts 330°
2026-04-27 23:40 -11.02215 -67.21455 35919 ft 448 kts 330°
2026-04-27 23:40 -10.96826 -67.24661 35920 ft 448 kts 330°
2026-04-27 23:41 -10.91436 -67.27866 35921 ft 448 kts 330°
2026-04-27 23:41 -10.86045 -67.31071 35923 ft 449 kts 330°
2026-04-27 23:42 -10.80645 -67.34279 35921 ft 449 kts 330°
2026-04-27 23:42 -10.75279 -67.37467 35922 ft 449 kts 330°
2026-04-27 23:43 -10.69871 -67.40677 35918 ft 449 kts 330°
2026-04-27 23:43 -10.64473 -67.43881 35920 ft 449 kts 330°
2026-04-27 23:44 -10.59110 -67.47063 35920 ft 449 kts 330°
2026-04-27 23:44 -10.53708 -67.50267 35920 ft 449 kts 330°
2026-04-27 23:45 -10.48311 -67.53468 35920 ft 449 kts 330°
2026-04-27 23:45 -10.42978 -67.56709 35914 ft 449 kts 329°
2026-04-27 23:46 -10.37625 -67.59994 35918 ft 449 kts 329°
2026-04-27 23:46 -10.32268 -67.63274 35918 ft 449 kts 329°
2026-04-27 23:47 -10.26909 -67.66546 35920 ft 449 kts 329°
2026-04-27 23:47 -10.21574 -67.69801 35913 ft 449 kts 329°
2026-04-27 23:48 -10.16199 -67.73078 35913 ft 450 kts 329°
2026-04-27 23:48 -10.10836 -67.76347 35910 ft 450 kts 329°
2026-04-27 23:49 -10.05495 -67.79602 35898 ft 450 kts 329°
2026-04-27 23:49 -10.00123 -67.82874 35893 ft 450 kts 329°
2026-04-27 23:50 -9.94748 -67.86148 35884 ft 451 kts 329°
2026-04-27 23:50 -9.89366 -67.89423 35884 ft 451 kts 329°
2026-04-27 23:51 -9.84343 -67.93221 35895 ft 451 kts 319°
2026-04-27 23:51 -9.79640 -67.97456 35889 ft 451 kts 319°
2026-04-27 23:52 -9.74964 -68.01667 35895 ft 452 kts 319°
2026-04-27 23:52 -9.70239 -68.05870 35902 ft 452 kts 319°
2026-04-27 23:53 -9.65497 -68.10063 35908 ft 452 kts 319°
2026-04-27 23:53 -9.61550 -68.13552 35914 ft 452 kts 319°
2026-04-27 23:54 -9.56805 -68.17746 35922 ft 452 kts 319°
2026-04-27 23:54 -9.52088 -68.21914 35922 ft 452 kts 319°
2026-04-27 23:55 -9.47345 -68.26105 35919 ft 452 kts 319°
2026-04-27 23:55 -9.42600 -68.30296 35922 ft 452 kts 319°
2026-04-27 23:56 -9.37854 -68.34484 35916 ft 452 kts 320°
2026-04-27 23:56 -9.32865 -68.38384 35920 ft 452 kts 324°
2026-04-27 23:57 -9.27779 -68.42073 35916 ft 452 kts 324°
2026-04-27 23:57 -9.22664 -68.45788 35919 ft 453 kts 324°
2026-04-27 23:58 -9.17552 -68.49543 35917 ft 453 kts 324°
2026-04-27 23:58 -9.12452 -68.53309 35918 ft 453 kts 323°
2026-04-27 23:59 -9.07380 -68.57058 35920 ft 454 kts 323°
2026-04-27 23:59 -9.02268 -68.60833 35917 ft 454 kts 323°
2026-04-28 00:00 -8.97155 -68.64608 35916 ft 455 kts 323°
2026-04-28 00:00 -8.92037 -68.68383 35919 ft 455 kts 323°
2026-04-28 00:01 -8.86947 -68.72137 35917 ft 455 kts 323°
2026-04-28 00:01 -8.81822 -68.75917 35914 ft 455 kts 323°
2026-04-28 00:02 -8.76689 -68.79700 35917 ft 455 kts 323°
2026-04-28 00:02 -8.71594 -68.83453 35917 ft 455 kts 323°
2026-04-28 00:03 -8.66475 -68.87224 35919 ft 454 kts 323°
2026-04-28 00:03 -8.61398 -68.90961 35916 ft 453 kts 323°
2026-04-28 00:04 -8.53745 -68.96593 35916 ft 452 kts 323°
2026-04-28 00:05 -8.48664 -69.00332 35920 ft 451 kts 323°
2026-04-28 00:05 -8.43617 -69.04043 35924 ft 451 kts 323°
2026-04-28 00:06 -8.38537 -69.07777 35919 ft 450 kts 323°
2026-04-28 00:06 -8.33469 -69.11502 35921 ft 450 kts 323°
2026-04-28 00:07 -8.28428 -69.15205 35924 ft 450 kts 323°
2026-04-28 00:07 -8.23357 -69.18930 35919 ft 450 kts 323°
2026-04-28 00:08 -8.18294 -69.22647 35922 ft 450 kts 323°
2026-04-28 00:08 -8.13254 -69.26346 35921 ft 450 kts 323°
2026-04-28 00:09 -8.08182 -69.30068 35917 ft 450 kts 323°
2026-04-28 00:09 -8.03107 -69.33790 35920 ft 451 kts 323°
2026-04-28 00:10 -7.98022 -69.37519 35921 ft 451 kts 323°
2026-04-28 00:10 -7.92972 -69.41221 35918 ft 451 kts 323°
2026-04-28 00:11 -7.87883 -69.44950 35919 ft 452 kts 323°
2026-04-28 00:11 -7.82780 -69.48689 35919 ft 452 kts 323°
2026-04-28 00:12 -7.77708 -69.52403 35918 ft 452 kts 324°
2026-04-28 00:12 -7.72609 -69.56137 35916 ft 453 kts 324°
2026-04-28 00:13 -7.67506 -69.59872 35917 ft 453 kts 324°
2026-04-28 00:13 -7.62409 -69.63601 35915 ft 453 kts 324°
2026-04-28 00:14 -7.57335 -69.67313 35913 ft 453 kts 324°
2026-04-28 00:14 -7.52229 -69.71046 35919 ft 452 kts 324°
2026-04-28 00:15 -7.47157 -69.74755 35919 ft 452 kts 324°
2026-04-28 00:15 -7.42059 -69.78481 35919 ft 452 kts 324°
2026-04-28 00:16 -7.36966 -69.82203 35917 ft 451 kts 324°
2026-04-28 00:16 -7.31911 -69.85896 35921 ft 451 kts 324°
2026-04-28 00:17 -7.26817 -69.89615 35920 ft 451 kts 324°
2026-04-28 00:17 -7.21729 -69.93328 35921 ft 451 kts 324°
2026-04-28 00:18 -7.16672 -69.97017 35921 ft 451 kts 324°
2026-04-28 00:18 -7.11583 -70.00730 35924 ft 451 kts 324°
2026-04-28 00:19 -7.06490 -70.04446 35923 ft 451 kts 324°
2026-04-28 00:19 -7.01395 -70.08162 35923 ft 452 kts 324°
2026-04-28 00:20 -6.96330 -70.11855 35924 ft 452 kts 324°
2026-04-28 00:20 -6.91232 -70.15571 35923 ft 452 kts 324°
2026-04-28 00:21 -6.86123 -70.19294 35924 ft 452 kts 324°
2026-04-28 00:21 -6.81048 -70.22991 35923 ft 453 kts 324°
2026-04-28 00:22 -6.75943 -70.26710 35924 ft 453 kts 324°
2026-04-28 00:22 -6.70834 -70.30429 35924 ft 453 kts 324°
2026-04-28 00:23 -6.65724 -70.34150 35927 ft 453 kts 324°
2026-04-28 00:23 -6.60647 -70.37844 35925 ft 453 kts 324°
2026-04-28 00:24 -6.55541 -70.41559 35926 ft 453 kts 324°
2026-04-28 00:24 -6.50428 -70.45278 35925 ft 453 kts 324°
2026-04-28 00:25 -6.45346 -70.48974 35927 ft 453 kts 324°
2026-04-28 00:25 -6.40233 -70.52691 35924 ft 453 kts 324°
2026-04-28 00:26 -6.35123 -70.56405 35926 ft 453 kts 324°
2026-04-28 00:26 -6.30010 -70.60121 35928 ft 453 kts 324°
2026-04-28 00:27 -6.24933 -70.63809 35930 ft 453 kts 324°
2026-04-28 00:27 -6.19819 -70.67524 35925 ft 453 kts 324°
2026-04-28 00:28 -6.14697 -70.71244 35926 ft 454 kts 324°
2026-04-28 00:28 -6.09538 -70.74989 36039 ft 460 kts 324°
2026-04-28 00:28 -6.06940 -70.76876 36236 ft 460 kts 324°
2026-04-28 00:29 -6.04384 -70.78731 36491 ft 458 kts 324°
2026-04-28 00:29 -6.01801 -70.80605 36720 ft 457 kts 324°
2026-04-28 00:29 -5.99220 -70.82478 36899 ft 457 kts 324°
2026-04-28 00:29 -5.96631 -70.84358 37073 ft 458 kts 324°
2026-04-28 00:30 -5.94052 -70.86231 37283 ft 457 kts 324°
2026-04-28 00:30 -5.91474 -70.88102 37493 ft 456 kts 324°
2026-04-28 00:30 -5.88898 -70.89973 37691 ft 456 kts 324°
2026-04-28 00:30 -5.86362 -70.91815 37868 ft 455 kts 324°
2026-04-28 00:31 -5.83795 -70.93678 37918 ft 456 kts 324°
2026-04-28 00:31 -5.78626 -70.97430 37930 ft 457 kts 324°
2026-04-28 00:32 -5.73469 -71.01173 37917 ft 456 kts 324°
2026-04-28 00:32 -5.68327 -71.04904 37929 ft 455 kts 324°
2026-04-28 00:33 -5.63201 -71.08623 37931 ft 454 kts 324°
2026-04-28 00:33 -5.58112 -71.12314 37922 ft 454 kts 324°
2026-04-28 00:34 -5.52983 -71.16031 37925 ft 454 kts 324°
2026-04-28 00:34 -5.47854 -71.19742 37929 ft 454 kts 324°
2026-04-28 00:35 -5.42722 -71.23454 37928 ft 455 kts 324°
2026-04-28 00:35 -5.37581 -71.27173 37930 ft 455 kts 324°
2026-04-28 00:36 -5.32459 -71.30879 37930 ft 456 kts 324°
2026-04-28 00:36 -5.27301 -71.34610 37930 ft 456 kts 324°
2026-04-28 00:37 -5.22145 -71.38338 37922 ft 457 kts 324°
2026-04-28 00:37 -5.17013 -71.42049 37932 ft 457 kts 324°
2026-04-28 00:38 -5.11843 -71.45785 37929 ft 457 kts 324°
2026-04-28 00:38 -5.06675 -71.49521 37922 ft 457 kts 324°
2026-04-28 00:39 -5.01502 -71.53258 37929 ft 457 kts 324°
2026-04-28 00:39 -4.96373 -71.56964 37922 ft 457 kts 324°
2026-04-28 00:40 -4.91205 -71.60697 37917 ft 456 kts 324°
2026-04-28 00:40 -4.86048 -71.64421 37931 ft 456 kts 324°
2026-04-28 00:41 -4.81767 -71.67512 37926 ft 456 kts 324°
2026-04-28 00:41 -4.75786 -71.71829 37923 ft 455 kts 324°
2026-04-28 00:42 -4.71720 -71.74764 37929 ft 455 kts 324°
2026-04-28 00:42 -4.67446 -71.77848 37924 ft 455 kts 324°
2026-04-28 00:43 -4.62318 -71.81549 37924 ft 454 kts 324°
2026-04-28 00:43 -4.57185 -71.85253 37932 ft 454 kts 324°
2026-04-28 00:44 -4.52059 -71.88951 37930 ft 453 kts 324°
2026-04-28 00:44 -4.46927 -71.92643 37926 ft 453 kts 324°
2026-04-28 00:45 -4.41800 -71.96326 37926 ft 453 kts 324°
2026-04-28 00:45 -4.36708 -71.99983 37930 ft 453 kts 324°
2026-04-28 00:46 -4.31577 -72.03669 37924 ft 453 kts 324°
2026-04-28 00:46 -4.26453 -72.07351 37932 ft 453 kts 324°
2026-04-28 00:47 -4.21348 -72.11019 37943 ft 453 kts 324°
2026-04-28 00:47 -4.16218 -72.14703 37927 ft 453 kts 324°
2026-04-28 00:48 -4.11073 -72.18398 37931 ft 454 kts 324°
2026-04-28 00:48 -4.05967 -72.22064 37939 ft 454 kts 324°
2026-04-28 00:49 -4.00819 -72.25760 37934 ft 455 kts 324°
2026-04-28 00:49 -3.95661 -72.29462 37933 ft 456 kts 324°
2026-04-28 00:50 -3.90500 -72.33166 37936 ft 457 kts 324°
2026-04-28 00:50 -3.85356 -72.36857 37938 ft 457 kts 324°
2026-04-28 00:51 -3.80174 -72.40575 37934 ft 458 kts 324°
2026-04-28 00:51 -3.74990 -72.44294 37938 ft 458 kts 324°
2026-04-28 00:52 -3.69810 -72.48009 37934 ft 458 kts 324°
2026-04-28 00:52 -3.64662 -72.51701 37935 ft 458 kts 324°
2026-04-28 00:53 -3.59489 -72.55410 37947 ft 457 kts 324°
2026-04-28 00:53 -3.54314 -72.59120 37937 ft 457 kts 324°
2026-04-28 00:54 -3.49138 -72.62830 37941 ft 456 kts 324°
2026-04-28 00:54 -3.43977 -72.66530 37942 ft 455 kts 324°
2026-04-28 00:55 -3.38853 -72.70201 37940 ft 455 kts 324°
2026-04-28 00:55 -3.33698 -72.73895 37936 ft 455 kts 324°
2026-04-28 00:56 -3.28541 -72.77590 37945 ft 454 kts 324°
2026-04-28 00:56 -3.23428 -72.81253 37946 ft 454 kts 324°
2026-04-28 00:57 -3.18282 -72.84939 37941 ft 454 kts 324°
2026-04-28 00:57 -3.13171 -72.88600 37938 ft 454 kts 324°
2026-04-28 00:58 -3.08032 -72.92280 37942 ft 454 kts 324°
2026-04-28 00:58 -3.02886 -72.95966 37951 ft 454 kts 324°
2026-04-28 00:59 -2.97751 -72.99643 37946 ft 453 kts 324°
2026-04-28 00:59 -2.92338 -73.02770 37941 ft 453 kts 340°
2026-04-28 01:00 -2.86372 -73.04776 37940 ft 452 kts 342°
2026-04-28 01:00 -2.80384 -73.06708 37940 ft 452 kts 342°
2026-04-28 01:01 -2.74414 -73.08671 37950 ft 451 kts 341°
2026-04-28 01:01 -2.68485 -73.10650 37943 ft 451 kts 341°
2026-04-28 01:02 -2.62538 -73.12646 37944 ft 451 kts 341°
2026-04-28 01:02 -2.56590 -73.14641 37945 ft 450 kts 341°
2026-04-28 01:03 -2.50643 -73.16636 37950 ft 450 kts 341°
2026-04-28 01:03 -2.44731 -73.18617 37943 ft 450 kts 341°
2026-04-28 01:04 -2.38783 -73.20611 37940 ft 450 kts 341°
2026-04-28 01:04 -2.32823 -73.22608 37951 ft 450 kts 341°
2026-04-28 01:05 -2.26911 -73.24588 37949 ft 451 kts 341°
2026-04-28 01:05 -2.20948 -73.26586 37943 ft 452 kts 341°
2026-04-28 01:06 -2.14981 -73.28585 37956 ft 452 kts 341°
2026-04-28 01:06 -2.08997 -73.30590 37953 ft 453 kts 341°
2026-04-28 01:07 -2.03045 -73.32584 37954 ft 454 kts 341°
2026-04-28 01:07 -1.97049 -73.34592 37940 ft 455 kts 341°
2026-04-28 01:08 -1.91046 -73.36602 37952 ft 455 kts 341°
2026-04-28 01:08 -1.85032 -73.38617 37946 ft 455 kts 341°
2026-04-28 01:09 -1.79012 -73.40633 37945 ft 456 kts 341°
2026-04-28 01:09 -1.73027 -73.42637 37948 ft 456 kts 341°
2026-04-28 01:10 -1.67004 -73.44653 37951 ft 456 kts 341°
2026-04-28 01:10 -1.60979 -73.46670 37952 ft 456 kts 341°
2026-04-28 01:11 -1.54952 -73.48688 37948 ft 457 kts 341°
2026-04-28 01:11 -1.48919 -73.50708 37952 ft 457 kts 341°
2026-04-28 01:12 -1.42931 -73.52712 37951 ft 457 kts 341°
2026-04-28 01:12 -1.36904 -73.54730 37953 ft 456 kts 341°
2026-04-28 01:13 -1.30873 -73.56749 37957 ft 456 kts 341°
2026-04-28 01:13 -1.21848 -73.59771 37960 ft 455 kts 341°
2026-04-28 01:14 -1.15834 -73.61783 37961 ft 455 kts 341°
2026-04-28 01:14 -1.10102 -73.64337 37977 ft 453 kts 329°
2026-04-28 01:15 -1.04704 -73.67594 37965 ft 453 kts 328°
2026-04-28 01:15 -0.99323 -73.70878 37957 ft 453 kts 328°
2026-04-28 01:16 -0.93927 -73.74129 37956 ft 453 kts 328°
2026-04-28 01:16 -0.88559 -73.77337 37959 ft 453 kts 328°
2026-04-28 01:17 -0.83151 -73.80561 37961 ft 453 kts 328°
2026-04-28 01:17 -0.77735 -73.83790 37962 ft 453 kts 328°
2026-04-28 01:18 -0.72317 -73.87021 37961 ft 453 kts 328°
2026-04-28 01:18 -0.66901 -73.90251 37953 ft 453 kts 328°
2026-04-28 01:19 -0.61524 -73.93458 37958 ft 453 kts 328°
2026-04-28 01:19 -0.56095 -73.96696 37961 ft 453 kts 328°
2026-04-28 01:20 -0.50667 -73.99934 37959 ft 454 kts 328°
2026-04-28 01:20 -0.45239 -74.03171 37963 ft 455 kts 328°
2026-04-28 01:21 -0.39797 -74.06417 37962 ft 455 kts 328°
2026-04-28 01:21 -0.34388 -74.09642 37965 ft 456 kts 328°
2026-04-28 01:22 -0.28921 -74.12903 37965 ft 456 kts 328°
2026-04-28 01:22 -0.23499 -74.16136 37963 ft 456 kts 328°
2026-04-28 01:23 -0.18045 -74.19388 37963 ft 456 kts 328°
2026-04-28 01:23 -0.12595 -74.22638 37962 ft 456 kts 328°
2026-04-28 01:24 -0.07150 -74.25886 37965 ft 455 kts 328°
2026-04-28 01:24 -0.01741 -74.29111 37959 ft 454 kts 328°
2026-04-28 01:25 0.03677 -74.32343 37969 ft 453 kts 328°
2026-04-28 01:25 0.09088 -74.35569 37964 ft 452 kts 328°
2026-04-28 01:26 0.14493 -74.38793 37953 ft 451 kts 328°
2026-04-28 01:26 0.19843 -74.41983 37955 ft 450 kts 328°
2026-04-28 01:27 0.25221 -74.45191 37959 ft 450 kts 328°
2026-04-28 01:27 0.30601 -74.48400 37958 ft 450 kts 328°
2026-04-28 01:28 0.35975 -74.51605 37953 ft 450 kts 328°
2026-04-28 01:28 0.41354 -74.54813 37961 ft 450 kts 328°
2026-04-28 01:29 0.46738 -74.58024 37956 ft 451 kts 328°
2026-04-28 01:29 0.52130 -74.61240 37962 ft 452 kts 328°
2026-04-28 01:30 0.57496 -74.64441 37961 ft 452 kts 328°
2026-04-28 01:30 0.62904 -74.67667 37953 ft 453 kts 327°
2026-04-28 01:31 0.67414 -74.70357 37952 ft 453 kts 327°
2026-04-28 01:31 0.72840 -74.73595 37958 ft 453 kts 327°
2026-04-28 01:32 0.78267 -74.76833 37950 ft 454 kts 327°
2026-04-28 01:32 0.83661 -74.80051 37945 ft 454 kts 327°
2026-04-28 01:33 0.89094 -74.83296 37955 ft 454 kts 327°
2026-04-28 01:33 0.94480 -74.86515 37960 ft 454 kts 328°
2026-04-28 01:34 0.99896 -74.89754 37948 ft 453 kts 328°
2026-04-28 01:34 1.05314 -74.92995 37957 ft 453 kts 328°
2026-04-28 01:35 1.10722 -74.96229 37957 ft 453 kts 328°
2026-04-28 01:35 1.16129 -74.99463 37952 ft 452 kts 328°
2026-04-28 01:36 1.21535 -75.02696 37955 ft 452 kts 328°
2026-04-28 01:36 1.26933 -75.05925 37957 ft 452 kts 328°
2026-04-28 01:37 1.32305 -75.09138 37950 ft 452 kts 328°
2026-04-28 01:37 1.37703 -75.12367 37956 ft 452 kts 328°
2026-04-28 01:38 1.43108 -75.15600 37959 ft 452 kts 328°
2026-04-28 01:38 1.48511 -75.18833 37967 ft 452 kts 328°
2026-04-28 01:39 1.53874 -75.22042 37963 ft 452 kts 329°
2026-04-28 01:39 1.59276 -75.25276 37964 ft 453 kts 329°
2026-04-28 01:40 1.64702 -75.28523 37981 ft 454 kts 329°
2026-04-28 01:40 1.70130 -75.31769 37979 ft 454 kts 329°
2026-04-28 01:41 1.75564 -75.35012 37986 ft 455 kts 329°
2026-04-28 01:41 1.80973 -75.38241 37992 ft 456 kts 329°
2026-04-28 01:42 1.86425 -75.41498 38009 ft 456 kts 329°
2026-04-28 01:42 1.91883 -75.44759 38031 ft 457 kts 329°
2026-04-28 01:43 1.97338 -75.48020 38042 ft 457 kts 329°
2026-04-28 01:43 2.02795 -75.51281 38043 ft 457 kts 329°
2026-04-28 01:44 2.08247 -75.54539 38041 ft 456 kts 329°
2026-04-28 01:44 2.13665 -75.57778 38037 ft 456 kts 328°
2026-04-28 01:45 2.19113 -75.61034 38048 ft 455 kts 328°
2026-04-28 01:45 2.24549 -75.64284 38025 ft 454 kts 328°
2026-04-28 01:46 2.29968 -75.67524 38024 ft 453 kts 328°
2026-04-28 01:46 2.35375 -75.70757 38022 ft 452 kts 328°
2026-04-28 01:47 2.40738 -75.73965 38033 ft 451 kts 328°
2026-04-28 01:47 2.46113 -75.77179 38025 ft 450 kts 328°
2026-04-28 01:48 2.51483 -75.80391 38040 ft 449 kts 328°
2026-04-28 01:48 2.56847 -75.83600 38056 ft 449 kts 328°
2026-04-28 01:49 2.62210 -75.86808 38081 ft 448 kts 328°
2026-04-28 01:49 2.67538 -75.89996 38091 ft 449 kts 328°
2026-04-28 01:50 2.72909 -75.93210 38117 ft 449 kts 328°
2026-04-28 01:50 2.78287 -75.96428 38121 ft 450 kts 328°
2026-04-28 01:51 2.83677 -75.99654 38145 ft 451 kts 328°
2026-04-28 01:51 2.89044 -76.02866 38144 ft 452 kts 328°
2026-04-28 01:52 2.94466 -76.06112 38144 ft 454 kts 328°
2026-04-28 01:52 2.99869 -76.09347 38145 ft 455 kts 328°
2026-04-28 01:53 3.05309 -76.12604 38124 ft 456 kts 328°
2026-04-28 01:53 3.10760 -76.15868 38114 ft 457 kts 328°
2026-04-28 01:54 3.16221 -76.19139 38095 ft 457 kts 328°
2026-04-28 01:54 3.21684 -76.22410 38095 ft 457 kts 328°
2026-04-28 01:55 3.27099 -76.25654 38071 ft 456 kts 328°
2026-04-28 01:55 3.32546 -76.28918 38057 ft 456 kts 328°
2026-04-28 01:56 3.37986 -76.32177 38048 ft 455 kts 328°
2026-04-28 01:56 3.39783 -76.33254 38047 ft 455 kts 328°